Location: Arborea
(39.7744°N, 8.5819°E)
Time: 11:59:01
(UTC+00:00)

Cosmos 1953 - Pass Details

Date: 05 June 2022
Orbit: 533 x 555 km, 82.5° (Epoch: 30 June)

Event Time Altitude Azimuth Distance (km) Brightness Sun altitude
Rises 22:39:56 0° 354° (N) 2,704 7.2 -26.7°
Reaches altitude 10° 22:42:07 10° 355° (N) 1,805 5.9 -26.8°
Enters shadow 22:44:53 43° 5° (N) 761 3.4 -26.9°
